TimeSAST,TemperatureF,Dew PointF,Humidity,Sea Level PressureIn,VisibilityMPH,Wind Direction,Wind SpeedMPH,Gust SpeedMPH,PrecipitationIn,Events,Conditions,WindDirDegrees,DateUTC
1:00 AM,46.4,44.6,93,29.77,5.6,NW,5.8,-,N/A,Fog-Rain,Light Rain,310,2013-07-22 23:00:00
2:00 AM,44,43,95,29.79,1,West,6.9,,,,,280,2013-07-23 00:00:00
3:00 AM,44.6,42.8,93,29.77,-9999.0,WNW,5.8,-,N/A,,Clear,300,2013-07-23 01:00:00
4:00 AM,42.8,41.0,93,29.77,-9999.0,WSW,6.9,-,N/A,,Clear,240,2013-07-23 02:00:00
5:00 AM,46,43,84,29.78,12,North,5.8,,,,,0,2013-07-23 03:00:00
5:00 AM,44.6,41.0,87,29.77,-9999.0,NNE,5.8,-,N/A,,Clear,20,2013-07-23 03:00:00
6:00 AM,48.2,39.2,71,29.77,-9999.0,NW,8.1,-,N/A,,Clear,320,2013-07-23 04:00:00
7:00 AM,50.0,42.8,76,29.80,-9999.0,East,4.6,-,N/A,,Clear,90,2013-07-23 05:00:00
8:00 AM,50,43,68,29.83,19,NNW,5.8,,,,Partly Cloudy,340,2013-07-23 06:00:00
8:00 AM,50.0,42.8,76,29.80,-9999.0,NNW,3.5,-,N/A,,Clear,340,2013-07-23 06:00:00
9:00 AM,51.8,42.8,71,29.83,6.2,West,4.6,-,N/A,,Partly Cloudy,260,2013-07-23 07:00:00
10:00 AM,53.6,44.6,72,29.83,6.2,NW,5.8,-,N/A,,Scattered Clouds,310,2013-07-23 08:00:00
11:00 AM,54,46,66,29.89,19,West,9.2,,,,Mostly Cloudy,260,2013-07-23 09:00:00
11:00 AM,53.6,44.6,72,29.89,6.2,West,10.4,-,N/A,,Mostly Cloudy,260,2013-07-23 09:00:00
12:00 PM,53.6,46.4,77,29.89,6.2,WSW,26.5,-,N/A,,Mostly Cloudy,250,2013-07-23 10:00:00
1:00 PM,50.0,46.4,87,29.92,3.7,West,23.0,-,N/A,Rain,Light Rain,260,2013-07-23 11:00:00
2:00 PM,49,45,83,29.96,6,West,16.1,,,Rain,Light Rain,270,2013-07-23 12:00:00
2:00 PM,50.0,44.6,82,29.95,6.2,West,16.1,-,N/A,Rain,Light Rain,270,2013-07-23 12:00:00
3:00 PM,50.0,46.4,87,29.95,6.2,NW,15.0,-,N/A,,Mostly Cloudy,310,2013-07-23 13:00:00
4:00 PM,51.8,44.6,76,29.95,6.2,WNW,13.8,-,N/A,,Mostly Cloudy,290,2013-07-23 14:00:00
5:00 PM,52,44,66,29.98,12,WNW,15.0,,,,Partly Cloudy,300,2013-07-23 15:00:00
5:00 PM,51.8,44.6,76,29.95,6.2,WNW,13.8,-,N/A,,Mostly Cloudy,300,2013-07-23 15:00:00
6:00 PM,50.0,42.8,76,29.98,6.2,WNW,10.4,-,N/A,,Mostly Cloudy,290,2013-07-23 16:00:00
7:00 PM,50.0,42.8,76,30.01,6.2,WNW,12.7,-,N/A,,Mostly Cloudy,290,2013-07-23 17:00:00
8:00 PM,48.2,41.0,76,30.04,6.2,WNW,10.4,-,N/A,,Scattered Clouds,290,2013-07-23 18:00:00
9:00 PM,48.2,39.2,71,30.06,-9999.0,WNW,11.5,-,N/A,,Clear,290,2013-07-23 19:00:00
10:00 PM,46.4,39.2,76,30.09,-9999.0,WNW,8.1,-,N/A,,Clear,300,2013-07-23 20:00:00
11:00 PM,44.6,37.4,76,30.09,-9999.0,West,6.9,-,N/A,,Clear,270,2013-07-23 21:00:00